Time,TemperatureF,DewpointF,PressureIn,WindDirection,WindDirectionDegrees,WindSpeedMPH,WindSpeedGustMPH,Humidity,HourlyPrecipIn,Conditions,Clouds,dailyrainin,SoftwareType,DateUTC
2013-01-27 00:01:00,22.0,10.0,-100.00,SSE,164,10.0,16.0,58,0.00,,,0.00,,2013-01-27 06:01:00,
2013-01-27 00:11:00,22.0,10.0,-100.00,SSE,164,10.0,16.0,58,0.00,,,0.00,,2013-01-27 06:11:00,
2013-01-27 00:21:00,22.0,10.0,-100.00,SSE,164,10.0,16.0,58,0.00,,,0.00,,2013-01-27 06:21:00,
2013-01-27 00:52:00,23.0,11.0,-100.00,South,172,11.0,16.0,60,0.00,,,0.00,,2013-01-27 06:52:00,
2013-01-27 01:01:00,23.0,11.0,-100.00,South,172,11.0,16.0,60,0.00,,,0.00,,2013-01-27 07:01:00,
2013-01-27 01:14:00,23.0,11.0,-100.00,South,172,11.0,16.0,60,0.00,,,0.00,,2013-01-27 07:14:00,
2013-01-27 01:21:00,23.0,11.0,-100.00,South,172,11.0,16.0,60,0.00,,,0.00,,2013-01-27 07:21:00,
2013-01-27 01:52:00,23.0,11.0,-100.00,South,181,11.0,22.0,60,0.00,,,0.00,,2013-01-27 07:52:00,
2013-01-27 02:01:00,23.0,11.0,-100.00,South,181,11.0,22.0,60,0.00,,,0.00,,2013-01-27 08:01:00,
2013-01-27 02:11:00,23.0,11.0,-100.00,South,181,11.0,22.0,60,0.00,,,0.00,,2013-01-27 08:11:00,
2013-01-27 02:22:00,23.0,11.0,-100.00,South,181,11.0,22.0,60,0.00,,,0.00,,2013-01-27 08:22:00,
2013-01-27 02:52:00,23.0,11.0,-100.00,South,174,11.0,16.0,60,0.00,,,0.00,,2013-01-27 08:52:00,
2013-01-27 03:02:00,23.0,11.0,-100.00,South,174,11.0,16.0,60,0.00,,,0.00,,2013-01-27 09:02:00,
2013-01-27 03:11:00,23.0,11.0,-100.00,South,174,11.0,16.0,60,0.00,,,0.00,,2013-01-27 09:11:00,
2013-01-27 03:21:00,23.0,11.0,-100.00,South,174,11.0,16.0,60,0.00,,,0.00,,2013-01-27 09:21:00,
2013-01-27 03:52:00,24.0,13.0,-100.00,South,180,11.0,15.0,62,0.00,,,0.00,,2013-01-27 09:52:00,
2013-01-27 04:01:00,24.0,13.0,-100.00,South,180,11.0,15.0,62,0.00,,,0.00,,2013-01-27 10:01:00,
2013-01-27 04:11:00,24.0,13.0,-100.00,South,180,11.0,15.0,62,0.00,,,0.00,,2013-01-27 10:11:00,
2013-01-27 04:21:00,24.0,13.0,-100.00,South,180,11.0,15.0,62,0.00,,,0.00,,2013-01-27 10:21:00,
2013-01-27 04:52:00,24.0,14.0,-100.00,South,173,11.0,15.0,64,0.00,,,0.00,,2013-01-27 10:52:00,
2013-01-27 05:01:00,24.0,14.0,-100.00,South,173,11.0,15.0,64,0.00,,,0.00,,2013-01-27 11:01:00,
2013-01-27 05:11:00,24.0,14.0,-100.00,South,173,11.0,15.0,64,0.00,,,0.00,,2013-01-27 11:11:00,
2013-01-27 05:21:00,24.0,14.0,-100.00,South,173,11.0,15.0,64,0.00,,,0.00,,2013-01-27 11:21:00,
2013-01-27 05:52:00,23.0,14.0,-100.00,SSE,161,9.0,15.0,69,0.00,,,0.00,,2013-01-27 11:52:00,
2013-01-27 06:02:00,23.0,14.0,-100.00,SSE,161,9.0,15.0,69,0.00,,,0.00,,2013-01-27 12:02:00,
2013-01-27 06:11:00,23.0,14.0,-100.00,SSE,161,9.0,15.0,69,0.00,,,0.00,,2013-01-27 12:11:00,
2013-01-27 06:21:00,23.0,14.0,-100.00,SSE,161,9.0,15.0,69,0.00,,,0.00,,2013-01-27 12:21:00,
2013-01-27 06:52:00,24.0,16.0,-100.00,SSE,164,12.0,20.0,72,0.00,,,0.00,,2013-01-27 12:52:00,
2013-01-27 07:02:00,24.0,16.0,-100.00,SSE,164,12.0,20.0,72,0.00,,,0.00,,2013-01-27 13:02:00,
2013-01-27 07:11:00,24.0,16.0,-100.00,SSE,164,12.0,20.0,72,0.00,,,0.00,,2013-01-27 13:11:00,
2013-01-27 07:22:00,24.0,16.0,-100.00,SSE,164,12.0,20.0,72,0.00,,,0.00,,2013-01-27 13:22:00,
2013-01-27 07:52:00,24.0,17.0,-100.00,SSE,165,12.0,17.0,73,0.00,,,0.00,,2013-01-27 13:52:00,
2013-01-27 08:02:00,24.0,17.0,-100.00,SSE,165,12.0,17.0,73,0.00,,,0.00,,2013-01-27 14:02:00,
2013-01-27 08:12:00,24.0,17.0,-100.00,SSE,165,12.0,17.0,73,0.00,,,0.00,,2013-01-27 14:12:00,
2013-01-27 08:22:00,24.0,17.0,-100.00,SSE,165,12.0,17.0,73,0.00,,,0.00,,2013-01-27 14:22:00,
2013-01-27 09:12:00,25.0,18.0,-100.00,SSE,166,13.0,19.0,73,0.00,,,0.00,,2013-01-27 15:12:00,
2013-01-27 09:22:00,25.0,18.0,-100.00,SSE,166,13.0,19.0,73,0.00,,,0.00,,2013-01-27 15:22:00,
2013-01-27 09:53:00,26.0,18.0,-100.00,South,172,13.0,20.0,70,0.00,,,0.00,,2013-01-27 15:53:00,
2013-01-27 10:02:00,26.0,18.0,-100.00,South,172,13.0,20.0,70,0.00,,,0.00,,2013-01-27 16:02:00,
2013-01-27 10:12:00,26.0,18.0,-100.00,South,172,13.0,20.0,70,0.00,,,0.00,,2013-01-27 16:12:00,
2013-01-27 10:21:00,26.0,18.0,-100.00,South,172,13.0,20.0,70,0.00,,,0.00,,2013-01-27 16:21:00,
2013-01-27 10:53:00,28.0,18.0,-100.00,SSE,162,13.0,19.0,67,0.00,,,0.00,,2013-01-27 16:53:00,
2013-01-27 11:02:00,28.0,18.0,-100.00,SSE,162,13.0,19.0,67,0.00,,,0.00,,2013-01-27 17:02:00,
2013-01-27 11:12:00,28.0,18.0,-100.00,SSE,162,13.0,19.0,67,0.00,,,0.00,,2013-01-27 17:12:00,
2013-01-27 11:22:00,28.0,18.0,-100.00,SSE,162,13.0,19.0,67,0.00,,,0.00,,2013-01-27 17:22:00,
2013-01-27 11:53:00,29.0,21.0,-100.00,South,173,13.0,20.0,71,0.00,,,0.00,,2013-01-27 17:53:00,
2013-01-27 12:02:00,29.0,21.0,-100.00,South,173,13.0,20.0,71,0.00,,,0.00,,2013-01-27 18:02:00,
2013-01-27 12:12:00,29.0,21.0,-100.00,South,173,13.0,20.0,71,0.00,,,0.00,,2013-01-27 18:12:00,
2013-01-27 12:22:00,29.0,21.0,-100.00,South,173,13.0,20.0,71,0.00,,,0.00,,2013-01-27 18:22:00,
2013-01-27 12:52:00,31.0,22.0,-100.00,South,169,14.0,20.0,68,0.00,,,0.00,,2013-01-27 18:52:00,
2013-01-27 13:02:00,31.0,22.0,-100.00,South,169,14.0,20.0,68,0.00,,,0.00,,2013-01-27 19:02:00,
2013-01-27 13:12:00,31.0,22.0,-100.00,South,169,14.0,20.0,68,0.00,,,0.00,,2013-01-27 19:12:00,
2013-01-27 13:22:00,31.0,22.0,-100.00,South,169,14.0,20.0,68,0.00,,,0.00,,2013-01-27 19:22:00,
2013-01-27 13:52:00,30.0,25.0,-100.00,SSE,154,10.0,21.0,82,0.00,,,0.00,,2013-01-27 19:52:00,
2013-01-27 14:02:00,30.0,25.0,-100.00,SSE,154,10.0,21.0,82,0.00,,,0.00,,2013-01-27 20:02:00,
2013-01-27 14:12:00,30.0,25.0,-100.00,SSE,154,10.0,21.0,82,0.00,,,0.00,,2013-01-27 20:12:00,
2013-01-27 14:22:00,30.0,25.0,-100.00,SSE,154,10.0,21.0,82,0.00,,,0.00,,2013-01-27 20:22:00,
2013-01-27 14:52:00,28.0,27.0,-100.00,SSE,155,12.0,20.0,94,0.00,,,0.00,,2013-01-27 20:52:00,
2013-01-27 15:02:00,28.0,27.0,-100.00,SSE,155,12.0,20.0,94,0.00,,,0.00,,2013-01-27 21:02:00,
2013-01-27 15:12:00,28.0,27.0,-100.00,SSE,155,12.0,20.0,94,0.00,,,0.00,,2013-01-27 21:12:00,
2013-01-27 15:22:00,28.0,27.0,-100.00,SSE,155,12.0,20.0,94,0.00,,,0.00,,2013-01-27 21:22:00,
2013-01-27 15:52:00,29.0,29.0,-100.00,SE,139,11.0,15.0,99,0.06,,,0.06,,2013-01-27 21:52:00,
2013-01-27 16:02:00,29.0,29.0,-100.00,SE,139,11.0,15.0,99,0.06,,,0.06,,2013-01-27 22:02:00,
2013-01-27 16:12:00,29.0,29.0,-100.00,SE,139,11.0,15.0,99,0.06,,,0.06,,2013-01-27 22:12:00,
2013-01-27 16:22:00,29.0,29.0,-100.00,SE,139,11.0,15.0,99,0.06,,,0.06,,2013-01-27 22:22:00,
2013-01-27 16:52:00,29.0,28.0,-100.00,SE,135,13.0,19.0,97,0.01,,,0.07,,2013-01-27 22:52:00,
2013-01-27 17:02:00,29.0,28.0,-100.00,SE,135,13.0,19.0,97,0.01,,,0.07,,2013-01-27 23:02:00,
2013-01-27 17:12:00,29.0,28.0,-100.00,SE,135,13.0,19.0,97,0.01,,,0.07,,2013-01-27 23:12:00,
2013-01-27 17:21:00,29.0,28.0,-100.00,SE,135,13.0,19.0,97,0.01,,,0.07,,2013-01-27 23:21:00,
2013-01-27 17:53:00,30.0,29.0,-100.00,SE,138,15.0,32.0,98,0.01,,,0.08,,2013-01-27 23:53:00,
2013-01-27 18:02:00,30.0,29.0,-100.00,SE,138,15.0,32.0,98,0.01,,,0.08,,2013-01-28 00:02:00,
2013-01-27 18:11:00,30.0,29.0,-100.00,SE,138,15.0,32.0,98,0.01,,,0.08,,2013-01-28 00:11:00,
2013-01-27 18:21:00,30.0,29.0,-100.00,SE,138,15.0,32.0,98,0.01,,,0.08,,2013-01-28 00:21:00,
2013-01-27 18:52:00,31.0,31.0,-100.00,SSE,151,13.0,26.0,99,0.01,,,0.09,,2013-01-28 00:52:00,
2013-01-27 19:02:00,31.0,31.0,-100.00,SSE,151,13.0,26.0,99,0.01,,,0.09,,2013-01-28 01:02:00,
2013-01-27 19:11:00,31.0,31.0,-100.00,SSE,151,13.0,26.0,99,0.01,,,0.09,,2013-01-28 01:11:00,
2013-01-27 19:22:00,31.0,31.0,-100.00,SSE,151,13.0,26.0,99,0.01,,,0.09,,2013-01-28 01:22:00,
2013-01-27 19:52:00,32.0,32.0,-100.00,SSE,152,10.0,25.0,100,0.00,,,0.09,,2013-01-28 01:52:00,
2013-01-27 20:02:00,32.0,32.0,-100.00,SSE,152,10.0,25.0,100,0.00,,,0.09,,2013-01-28 02:02:00,
2013-01-27 20:11:00,32.0,32.0,-100.00,SSE,152,10.0,25.0,100,0.00,,,0.09,,2013-01-28 02:11:00,
2013-01-27 20:22:00,32.0,32.0,-100.00,SSE,152,10.0,25.0,100,0.00,,,0.09,,2013-01-28 02:22:00,
2013-01-27 20:53:00,32.0,-99.9,-100.00,SSE,150,10.0,18.0,-999,0.00,,,0.09,,2013-01-28 02:53:00,
2013-01-27 21:02:00,32.0,-99.9,-100.00,SSE,150,10.0,18.0,-999,0.00,,,0.09,,2013-01-28 03:02:00,
2013-01-27 21:12:00,32.0,-99.9,-100.00,SSE,150,10.0,18.0,-999,0.00,,,0.09,,2013-01-28 03:12:00,
2013-01-27 21:22:00,32.0,-99.9,-100.00,SSE,150,10.0,18.0,-999,0.00,,,0.09,,2013-01-28 03:22:00,
2013-01-27 21:53:00,32.0,-99.9,-100.00,SSE,150,9.0,18.0,-999,0.00,,,0.09,,2013-01-28 03:53:00,
2013-01-27 22:02:00,32.0,-99.9,-100.00,SSE,150,9.0,18.0,-999,0.00,,,0.09,,2013-01-28 04:02:00,
2013-01-27 22:12:00,32.0,-99.9,-100.00,SSE,150,9.0,18.0,-999,0.00,,,0.09,,2013-01-28 04:12:00,
2013-01-27 22:22:00,32.0,-99.9,-100.00,SSE,150,9.0,18.0,-999,0.00,,,0.09,,2013-01-28 04:22:00,
2013-01-27 23:53:00,32.0,-99.9,-100.00,SSE,159,7.0,12.0,-999,-99.99,,,0.09,,2013-01-28 05:53:00,